Location: Shannon
(40.5500°S, 175.4167°E)
Time: 08:06:33
(UTC+00:00)

NOSS 3-1 (A) - Pass Details

Date: 17 November 2025
Orbit: 621 x 1586 km, 63.4° (Epoch: 02 December)

Event Time Altitude Azimuth Distance (km) Brightness Sun altitude
Rises 12:15:57 0° 219° (SW) 3,815 7.2 -30.3°
Reaches altitude 10° 12:18:56 10° 224° (SW) 2,699 6.3 -30.2°
Enters shadow 12:23:03 35° 252° (WSW) 1,338 4.2 -30.2°
